STARLINK-1231 (45212 NORAD) Tracking and Keplerian Element Data

This shows tracking and keplerian element data for the satellite.

Feedback or suggestion? Click here.




ElementValue
Catalog45212
NameSTARLINK-1231
Epoch Orbit162
Epoch Day93.91667824
Epoch Year2020
RAAN44.4719
Inclination52.9976
Eccentricity0.0001353
Argument of Perigee66.9183
Mean Anonmoly354.4442
Mean Motion15.62743835
Decay Rate-6.2E-06
L11 45212U 20012AL 20093.91667824 -.00000620 00000-0 -93072-6 0 9993
L22 45212 52.9976 44.4719 0001353 66.9183 354.4442 15.62743835 1627

Live tracking and technical data element details for STARLINK-1231 (NORAD 45212). STARLINK-1231 can be tracked NOW for your location showing map with azimuth and elevation plus other details from your city location.

Track the satellite on the map from your city or location and see movement details for azimuth, elevation, latitude, longitude, range, height, and movement on the map or in text.







IsCatalogInMostPopularTable: catalog: 45212, numindb: 12
Update: records affected: 1



GetName: 45212 STARLINK-1231

Hit Count: updated at: Tue, 07 Apr 2020 16:37:16 GMT